Home   Weather   Tabatinga   Past weeks

Flag for Brazil Past Weather in Tabatinga, Amazonas, Brazil — Yesterday and Last 2 Weeks

Now
86 °F

Partly sunny.


Feels Like: 99 °F
Forecast: 75 / 86 °F
Wind: No wind

Location: Leticia / Vasquez Cobo

Current Time: Apr 24, 2017 at 10:31:16 am

Latest Report: Apr 24, 2017 at 10:00 am


Visibility: N/A

Pressure: 29.91 "Hg

Humidity: 79%

Dew Point: 79 °F

Location of TabatingaLocation

Past Weather in Tabatinga — Graph

°F

Tabatinga Temperature Yesterday

Maximum temperature yesterday: 91 °F (at 1:00 pm)
Minimum temperature yesterday: 73 °F (at 12:00 am)
Average temperature yesterday: 81 °F

High & Low Weather Summary for the Past Weeks

 TemperatureHumidityPressure
High91 °F (Apr 9, 1:00 pm)100% (Apr 9, 8:00 pm)29.98 "Hg (Apr 9, 8:00 pm)
Low72 °F (Apr 19, 5:00 am)56% (Apr 21, 2:00 pm)29.67 "Hg (Apr 9, 4:00 pm)
Average79 °F91%29.86 "Hg
* Reported Apr 9 9:00 am — Apr 24 9:00 am, Tabatinga, Weather by CustomWeather, © 2017

Note: Actual official high and low records may vary slightly from our data, if they occured in-between our weather recording intervals... More about our weather records

Advertising

Tabatinga Weather History for the Previous 24 Hours

Scroll right to see more
 ConditionsComfort  
Time TempWeatherWind HumidityBarometerVisibility
9:00 am
Mon, Apr 24
86 °FPartly sunny.No wind79%29.92 "HgN/A
8:00 am81 °FPartly sunny.No wind89%29.92 "HgN/A
7:00 am75 °FPartly sunny.No wind100%29.88 "HgN/A
6:00 am73 °FFog.No wind94%29.87 "HgN/A
5:00 am73 °FFog.No wind94%29.86 "HgN/A
4:00 am73 °FPassing clouds.No wind100%29.85 "HgN/A
3:00 am73 °FPassing clouds.No wind100%29.85 "HgN/A
2:00 am75 °FPassing clouds.No wind94%29.87 "HgN/A
1:00 am75 °FClear.No wind94%29.89 "Hg10 mi
12:00 am75 °FClear.No wind94%29.93 "Hg10 mi
11:00 pm
Sun, Apr 23
75 °FClear.No wind94%29.92 "Hg10 mi
10:00 pm75 °FClear.No wind94%29.91 "Hg10 mi
9:00 pm77 °FClear.No wind94%29.90 "Hg10 mi
8:00 pm79 °FClear.No wind89%29.86 "Hg10 mi
7:00 pm79 °FPassing clouds.No wind89%29.82 "HgN/A
6:00 pm82 °FPassing clouds.2 mph79%29.79 "HgN/A
5:00 pm90 °FScattered clouds.No wind63%29.75 "HgN/A
4:00 pm91 °FScattered clouds.5 mph56%29.75 "HgN/A
3:00 pm91 °FScattered clouds.5 mph56%29.77 "HgN/A
2:00 pm91 °FPartly sunny.5 mph56%29.84 "HgN/A
1:00 pm91 °FScattered clouds.2 mph63%29.88 "HgN/A
12:00 pm90 °FScattered clouds.3 mph63%29.91 "HgN/A
11:00 am90 °FScattered clouds.5 mph63%29.94 "HgN/A
10:00 am88 °FScattered clouds.2 mph70%29.95 "HgN/A
Weather by CustomWeather, © 2017

See weather overviewHow to use our weather pages